Regional Weather Roundup
Issued by NWS

Home | Current Version | Previous Version | Text Only | Print | Product List | Glossary Off
Versions: 1 2 3 4 5 6 7 8 9 10 11 12 13 14 15 16 17 18 19 20 21 22 23 24 25 26 27 28 29 30 31 32 33 34 35 36 37 38 39 40 41 42 43 44 45 46 47 48 49 50

000
ASUS45 KCYS 271910
RWRWY

WYOMING REGIONAL WEATHER ROUNDUP
NATIONAL WEATHER SERVICE CHEYENNE WY
100 PM MDT SAT MAY 27 2017

NOTE:  "FAIR" INDICATES FEW OR NO CLOUDS BELOW 12,000 FEET
WITH NO SIGNIFICANT WEATHER AND/OR OBSTRUCTIONS TO VISIBILITY.

WYZ001-272000-
YELLOWSTONE NATIONAL PARK

CITY           SKY/WX    TMP DP  RH WIND       PRES   REMARKS
LK YELLOWSTONE   N/A     39  34  82 CALM      30.31R
W YELLOWSTONE  NOT AVBL

$$
WYZ002>013-054>058-071-098>099-272000-
NORTHERN WYOMING

CITY           SKY/WX    TMP DP  RH WIND       PRES   REMARKS
JACKSON        PTSUNNY   54  28  37 S3        30.26R
CODY           FAIR      63  27  25 VRB6      30.18R
GREYBULL       FAIR      67  30  25 NW8       30.13F
WORLAND        FAIR      64  38  38 N5        30.15S
SHERIDAN       FAIR      66  35  31 NW17G25   30.10S
BUFFALO        FAIR      64  33  31 N21       30.13R
GILLETTE       FAIR      64  38  38 W12G23    30.08F
HULETT         FAIR      63  32  31 NW10G16   30.07S
NEWCASTLE      FAIR      61  32  33 NW9G17    30.08F

$$
WYZ014>020-022>026-101>103-272000-
CENTRAL WYOMING

CITY           SKY/WX    TMP DP  RH WIND       PRES   REMARKS
BIG PINEY      PTSUNNY   56  23  27 N15       30.25R
PINEDALE       MOCLDY    52  21  30 NW6       30.25R
DUBOIS         MOCLDY    50  23  34 CALM      30.24R
LANDER         FAIR      59  30  33 NE7       30.19S
RIVERTON       FAIR      60  28  29 N15G21    30.19S
CASPER         FAIR      55  39  54 W21       30.18R
DOUGLAS        PTSUNNY   58  34  40 W12       30.14F

$$
WYZ021-027>030-104>119-272000-
SOUTHERN WYOMING

CITY           SKY/WX    TMP DP  RH WIND       PRES   REMARKS
EVANSTON       FAIR      54  31  41 VRB5      30.27S
KEMMERER         N/A     52  28  40 SW9       30.27R
FORT BRIDGER   CLOUDY    55  29  37 N8        30.29S
ROCK SPRINGS   PTSUNNY   53  27  36 VRB5      30.24R
DIXON            N/A     54  32  43 NW13G22   30.24R
RAWLINS        PTSUNNY   51  29  42 NW13      30.22R
SARATOGA       MOCLDY    48  36  61 N14G20    30.22S
LARAMIE        FAIR      49  33  54 N20G25    30.18S
CHEYENNE       FAIR      51  37  58 N14G26    30.14S
TORRINGTON     RAIN      53  44  71 N6G17     30.10R
PINE BLUFFS    FAIR      59  39  47 N16G22    30.11F

$$



USA.gov is the U.S. government's official web portal to all federal, state and local government web resources and services.